When you browse on this site, cookies collect data to enhance your experience and personalize the content and advertising you see.
Visit our Privacy Policy to learn more. By continuing to use the site, you agree to this use of cookies and data.
  • In Deutschland
  • Länderverzeichnis
  • Für 7 Tage
  • Wassertemperatur
  • Satellitenkarten
  • Wetterkarte
  • Widgets
  • user-avatar
    Anmelden

    Stündliche Wetter Livingstone

    Heute, 22 Januar, Dienstag

    Zeit Temperatur Niederschläge Wind Luftdruck Luftfeuchtigkeit
    00:00 +22°C° 0 mm 1 m/S 683 mmHg 70%
    01:00 +22°C° 0 mm 1 m/S 683 mmHg 71%
    02:00 +22°C° 0 mm 1 m/S 682 mmHg 72%
    03:00 +21°C° 0 mm 1 m/S 682 mmHg 74%
    04:00 +21°C° 0 mm 1 m/S 682 mmHg 76%
    05:00 +20°C° 0 mm 1 m/S 682 mmHg 77%
    06:00 +22°C° 0 mm 1 m/S 682 mmHg 73%
    07:00 +23°C° 0 mm 1 m/S 683 mmHg 69%
    08:00 +25°C° 0 mm 2 m/S 683 mmHg 62%
    09:00 +27°C° 0 mm 2 m/S 683 mmHg 55%
    10:00 +28°C° 0 mm 2 m/S 684 mmHg 49%
    11:00 +30°C° 0 mm 2 m/S 684 mmHg 42%
    12:00 +31°C° 0 mm 2 m/S 683 mmHg 37%
    13:00 +34°C° 0 mm 2 m/S 682 mmHg 31%
    14:00 +35°C° 0 mm 2 m/S 682 mmHg 26%
    15:00 +34°C° 0 mm 2 m/S 681 mmHg 25%
    16:00 +34°C° 0 mm 2 m/S 681 mmHg 24%
    17:00 +33°C° 0 mm 1 m/S 681 mmHg 24%
    18:00 +30°C° 0 mm 1 m/S 680 mmHg 29%
    19:00 +28°C° 0 mm 1 m/S 680 mmHg 35%
    20:00 +25°C° 0 mm 1 m/S 680 mmHg 41%
    21:00 +24°C° 0 mm 1 m/S 680 mmHg 45%
    22:00 +23°C° 0 mm 1 m/S 681 mmHg 49%
    23:00 +23°C° 0 mm 1 m/S 681 mmHg 53%

    Morgen, 23 Januar, Mittwoch

    Zeit Temperatur Niederschläge Wind Luftdruck Luftfeuchtigkeit
    00:00 +22°C° 0 mm 1 m/S 681 mmHg 56%
    01:00 +22°C° 0 mm 1 m/S 681 mmHg 59%
    02:00 +22°C° 0 mm 1 m/S 681 mmHg 62%
    03:00 +22°C° 0 mm 1 m/S 681 mmHg 63%
    04:00 +22°C° 0 mm 1 m/S 681 mmHg 65%
    05:00 +22°C° 0 mm 1 m/S 681 mmHg 66%
    06:00 +24°C° 0 mm 1 m/S 681 mmHg 64%
    07:00 +23°C° 0 mm 0 m/S 682 mmHg 61%
    08:00 +24°C° 0 mm 0 m/S 682 mmHg 59%
    09:00 +27°C° 0 mm 0 m/S 683 mmHg 51%
    10:00 +30°C° 0 mm 0 m/S 683 mmHg 42%
    11:00 +34°C° 0 mm 0 m/S 683 mmHg 34%
    12:00 +36°C° 0 mm 1 m/S 683 mmHg 31%
    13:00 +37°C° 0 mm 1 m/S 682 mmHg 29%
    14:00 +37°C° 0 mm 1 m/S 682 mmHg 27%
    15:00 +38°C° 0 mm 2 m/S 681 mmHg 27%
    16:00 +37°C° 0 mm 2 m/S 680 mmHg 27%
    17:00 +37°C° 0 mm 3 m/S 679 mmHg 27%
    18:00 +34°C° 0 mm 2 m/S 679 mmHg 34%
    19:00 +31°C° 0 mm 2 m/S 679 mmHg 41%
    20:00 +28°C° 0 mm 2 m/S 679 mmHg 49%
    21:00 +27°C° 0 mm 2 m/S 680 mmHg 56%
    22:00 +26°C° 0 mm 1 m/S 680 mmHg 63%
    23:00 +25°C° 0 mm 1 m/S 680 mmHg 69%

    übermorgen, 24 Januar, Donnerstag

    Zeit Temperatur Niederschläge Wind Luftdruck Luftfeuchtigkeit
    00:00 +24°C° 0 mm 1 m/S 680 mmHg 71%
    01:00 +24°C° 0 mm 1 m/S 680 mmHg 72%
    02:00 +21°C° 0 mm 0 m/S 680 mmHg 73%
    03:00 +21°C° 0 mm 0 m/S 680 mmHg 73%
    04:00 +21°C° 0 mm 0 m/S 680 mmHg 74%
    05:00 +21°C° 0 mm 0 m/S 680 mmHg 74%
    06:00 +24°C° 0 mm 1 m/S 680 mmHg 71%
    07:00 +25°C° 0 mm 1 m/S 681 mmHg 68%
    08:00 +26°C° 0 mm 1 m/S 682 mmHg 64%
    09:00 +29°C° 0 mm 1 m/S 682 mmHg 56%
    10:00 +32°C° 0 mm 1 m/S 683 mmHg 47%
    11:00 +34°C° 0 mm 1 m/S 683 mmHg 39%
    12:00 +36°C° 0 mm 2 m/S 683 mmHg 33%
    13:00 +38°C° 0 mm 2 m/S 682 mmHg 28%
    14:00 +39°C° 0 mm 2 m/S 681 mmHg 22%
    15:00 +38°C° 0 mm 3 m/S 681 mmHg 23%
    16:00 +38°C° 0 mm 3 m/S 680 mmHg 23%
    17:00 +38°C° 0 mm 4 m/S 680 mmHg 23%
    18:00 +35°C° 0 mm 3 m/S 680 mmHg 30%
    19:00 +31°C° 0 mm 3 m/S 680 mmHg 37%
    20:00 +29°C° 0 mm 3 m/S 680 mmHg 44%
    21:00 +28°C° 0 mm 2 m/S 681 mmHg 47%
    22:00 +27°C° 0 mm 2 m/S 681 mmHg 49%
    23:00 +26°C° 0 mm 2 m/S 681 mmHg 51%

    25 Januar, Freitag

    Zeit Temperatur Niederschläge Wind Luftdruck Luftfeuchtigkeit
    00:00 +26°C° 0 mm 2 m/S 681 mmHg 55%
    01:00 +25°C° 0 mm 1 m/S 681 mmHg 59%
    02:00 +24°C° 0 mm 1 m/S 681 mmHg 63%
    03:00 +24°C° 0 mm 1 m/S 681 mmHg 67%
    04:00 +23°C° 0 mm 1 m/S 681 mmHg 72%
    05:00 +21°C° 0 mm 0 m/S 681 mmHg 76%
    06:00 +22°C° 0 mm 0 m/S 682 mmHg 72%
    07:00 +26°C° 0 mm 1 m/S 682 mmHg 68%
    08:00 +27°C° 0 mm 1 m/S 683 mmHg 64%
    09:00 +29°C° 0 mm 1 m/S 684 mmHg 57%
    10:00 +32°C° 0 mm 1 m/S 684 mmHg 49%
    11:00 +34°C° 0 mm 1 m/S 684 mmHg 42%
    12:00 +35°C° 0 mm 1 m/S 684 mmHg 37%
    13:00 +37°C° 0 mm 1 m/S 683 mmHg 33%
    14:00 +39°C° 0 mm 1 m/S 683 mmHg 29%
    15:00 +39°C° 0 mm 1 m/S 682 mmHg 28%
    16:00 +38°C° 0 mm 2 m/S 681 mmHg 27%
    17:00 +37°C° 0 mm 2 m/S 681 mmHg 27%
    18:00 +35°C° 0 mm 2 m/S 681 mmHg 33%
    19:00 +31°C° 0 mm 2 m/S 681 mmHg 40%
    20:00 +29°C° 0 mm 2 m/S 681 mmHg 46%
    21:00 +28°C° 0 mm 2 m/S 681 mmHg 51%
    22:00 +27°C° 0 mm 2 m/S 682 mmHg 56%
    23:00 +27°C° 0 mm 2 m/S 682 mmHg 60%

    26 Januar, Samstag

    Zeit Temperatur Niederschläge Wind Luftdruck Luftfeuchtigkeit
    00:00 +26°C° 0 mm 1 m/S 682 mmHg 62%
    01:00 +25°C° 0 mm 1 m/S 682 mmHg 63%
    02:00 +25°C° 0 mm 1 m/S 681 mmHg 65%
    03:00 +24°C° 0 mm 1 m/S 681 mmHg 66%
    04:00 +23°C° 0 mm 1 m/S 681 mmHg 68%
    05:00 +23°C° 0 mm 1 m/S 681 mmHg 69%
    06:00 +24°C° 0 mm 1 m/S 682 mmHg 66%
    07:00 +26°C° 0 mm 1 m/S 683 mmHg 62%
    08:00 +27°C° 0 mm 1 m/S 684 mmHg 58%
    09:00 +30°C° 0 mm 1 m/S 684 mmHg 52%
    10:00 +32°C° 0 mm 2 m/S 684 mmHg 46%
    11:00 +35°C° 0 mm 2 m/S 685 mmHg 39%
    12:00 +37°C° 0 mm 2 m/S 684 mmHg 35%
    13:00 +38°C° 0 mm 2 m/S 683 mmHg 31%
    14:00 +39°C° 0 mm 2 m/S 683 mmHg 27%
    15:00 +38°C° 0 mm 2 m/S 682 mmHg 28%
    16:00 +38°C° 0 mm 2 m/S 682 mmHg 30%
    17:00 +37°C° 0 mm 2 m/S 681 mmHg 31%
    18:00 +35°C° 0 mm 2 m/S 681 mmHg 37%
    19:00 +32°C° 0 mm 2 m/S 681 mmHg 43%
    20:00 +29°C° 0 mm 3 m/S 682 mmHg 49%
    21:00 +29°C° 0 mm 3 m/S 682 mmHg 51%
    22:00 +28°C° 0 mm 3 m/S 682 mmHg 52%
    23:00 +27°C° 0 mm 3 m/S 682 mmHg 54%

    27 Januar, Sonntag

    Zeit Temperatur Niederschläge Wind Luftdruck Luftfeuchtigkeit
    00:00 +26°C° 0 mm 2 m/S 682 mmHg 57%
    01:00 +25°C° 0 mm 1 m/S 682 mmHg 59%
    02:00 +25°C° 0 mm 1 m/S 681 mmHg 62%
    03:00 +24°C° 0.3 mm 1 m/S 681 mmHg 67%
    04:00 +23°C° 0.3 mm 1 m/S 681 mmHg 73%
    05:00 +22°C° 0.3 mm 1 m/S 681 mmHg 78%
    06:00 +23°C° 0.3 mm 1 m/S 682 mmHg 77%
    07:00 +24°C° 0.3 mm 1 m/S 683 mmHg 75%
    08:00 +25°C° 0.3 mm 2 m/S 684 mmHg 73%
    09:00 +28°C° 0 mm 2 m/S 684 mmHg 63%
    10:00 +31°C° 0 mm 3 m/S 684 mmHg 53%
    11:00 +34°C° 0 mm 3 m/S 685 mmHg 42%
    12:00 +35°C° 0 mm 3 m/S 684 mmHg 39%
    13:00 +36°C° 0 mm 3 m/S 684 mmHg 35%
    14:00 +38°C° 0 mm 3 m/S 683 mmHg 32%
    15:00 +37°C° 0 mm 3 m/S 682 mmHg 33%
    16:00 +36°C° 0 mm 3 m/S 682 mmHg 34%
    17:00 +36°C° 0 mm 3 m/S 681 mmHg 35%
    18:00 +34°C° 0 mm 3 m/S 681 mmHg 41%
    19:00 +30°C° 0 mm 3 m/S 681 mmHg 47%
    20:00 +28°C° 0 mm 2 m/S 682 mmHg 53%
    21:00 +27°C° 0 mm 2 m/S 682 mmHg 58%
    22:00 +26°C° 0 mm 2 m/S 682 mmHg 63%
    23:00 +25°C° 0 mm 2 m/S 682 mmHg 68%
    Mehr zeigen